User: anonymous   Login
Location: Caltech
(34.1382°N, 118.1253°W)
Time: 11:57:43
(UTC-08:00)
Language:

Cosmos 2237 Rocket - Orbit

View from above orbital plane
View from above orbital plane
View from above satellite
View from above satellite

Ground track
Ground track

The orbit data is extracted from the following two-line orbital elements,

1 22566U 93016B   17020.17101353  .00000149  00000-0  10178-3 0  9995
2 22566  71.0058  17.6196 0010476 346.2436  13.8399 14.14941102230331
Epoch (UTC): 20 January 2017 04:06:15
Eccentricity: 0.0010476
inclination: 71.0058°
perigee height: 835 km
apogee height: 850 km
right ascension of ascending node: 17.6196°
argument of perigee: 346.2436°
revolutions per day: 14.14941102
mean anomaly at epoch: 13.8399°
orbit number at epoch: 23033

The dashed part of the orbit path shows where the satellite is in the earth's shadow,  

DLR